Date String (YYYY-MM-DD hh:mm:ss) UTC,Instrument flags,absolute air pressure of the measurement (hPa),sample flow rate (lpm),inlet stack bypass flow (lpm),air temperature of the measurement (°C),ambient temperature measured by the external sensor (°C),aerosol sample conditioner tube jacket temperature (°C),OPC LED temperature (°C),internal box temperature (°C),relative humidity of the measurement (%),span deviation,mass concentration of particles derived from Lorenz-Mie calculation of OPC scattering (μg/m³),mass concentration of particles derived from Lorenz-Mie calculation of OPC scattering (μg/m³),mass concentration of particles derived from Lorenz-Mie calculation of OPC scattering (μg/m³)
DateTimeUTC,F1_M11,P_M11,Q1_M11,Q2_M11,T1_M11,T2_M11,T3_M11,T4_M11,T5_M11,U1_M11,ZSPAN_M11,X2_M11,X0_M11,X1_M11
2023-12-04 03:00:00,SystemResetWarning,0826.3,5.01,000.00,018.7,017.6,000.0,027.1,020.0,12.5,0000.0,0002.98,0007.52,0002.32
2023-12-04 03:01:00,SystemResetWarning,0826.3,5.01,000.00,018.7,017.6,000.0,027.1,020.0,12.4,0000.0,0002.97,0007.50,0002.33
2023-12-04 03:02:00,SystemResetWarning,0826.3,5.01,000.00,018.7,017.6,000.0,027.1,020.0,12.3,0000.0,0002.97,0007.43,0002.33
2023-12-04 03:03:00,SystemResetWarning,0826.4,4.99,000.00,018.7,017.6,000.0,027.1,020.0,12.3,0000.0,0002.96,0007.04,0002.31
2023-12-04 03:04:00,SystemResetWarning,0826.4,5.00,000.00,018.7,017.6,000.0,027.1,020.0,12.3,0000.0,0002.96,0007.49,0002.31
2023-12-04 03:05:00,SystemResetWarning,0826.4,4.99,000.00,018.7,017.6,000.0,027.1,020.0,12.3,0000.0,0002.98,0008.18,0002.32
2023-12-04 03:06:00,SystemResetWarning,0826.4,5.00,000.00,018.7,017.6,000.0,027.1,020.0,12.3,0000.0,0003.01,0008.18,0002.32
2023-12-04 03:07:00,SystemResetWarning,0826.4,5.00,000.00,018.7,017.6,000.0,027.1,020.0,12.5,0000.0,0002.97,0007.90,0002.31
2023-12-04 03:08:00,SystemResetWarning,0826.4,5.01,000.00,018.7,017.6,000.0,027.1,020.0,12.6,0000.0,0002.90,0007.77,0002.30
2023-12-04 03:09:00,SystemResetWarning,0826.3,5.01,000.00,018.7,017.6,000.0,027.1,020.0,12.6,0000.0,0002.85,0008.00,0002.29
2023-12-04 03:10:00,SystemResetWarning,0826.3,5.00,000.00,018.7,017.6,000.0,027.2,020.0,12.3,0000.0,0002.83,0007.60,0002.28
2023-12-04 03:11:00,SystemResetWarning,0826.2,5.00,000.00,018.7,017.7,000.0,027.1,020.0,12.1,0000.0,0002.81,0007.31,0002.27
2023-12-04 03:12:00,SystemResetWarning,0826.2,5.00,000.00,018.7,017.6,000.0,027.1,020.0,12.0,0000.0,0002.79,0007.28,0002.26
2023-12-04 03:13:00,SystemResetWarning,0826.1,5.00,000.00,018.7,017.6,000.0,027.1,020.0,12.0,0000.0,0002.77,0007.57,0002.25
2023-12-04 03:14:00,SystemResetWarning,0826.0,5.00,000.00,018.7,017.6,000.0,027.1,020.0,12.0,0000.0,0002.76,0007.96,0002.25
2023-12-04 03:15:00,SystemResetWarning,0825.9,5.00,000.00,018.7,017.6,000.0,027.1,020.0,11.9,0000.0,0002.75,0008.38,0002.24
2023-12-04 03:16:00,SystemResetWarning,0825.9,5.00,000.00,018.7,017.6,000.0,027.1,020.0,12.1,0000.0,0002.72,0007.65,0002.22
2023-12-04 03:17:00,SystemResetWarning,0825.9,5.00,000.00,018.7,017.5,000.0,027.1,020.0,12.2,0000.0,0002.74,0007.78,0002.20
2023-12-04 03:18:00,SystemResetWarning,0825.9,5.00,000.00,018.7,017.5,000.0,027.1,020.0,12.2,0000.0,0002.75,0008.11,0002.19
2023-12-04 03:19:00,SystemResetWarning,0826.0,5.00,000.00,018.7,017.5,000.0,027.1,020.0,12.3,0000.0,0002.75,0008.12,0002.20
2023-12-04 03:20:00,SystemResetWarning,0826.1,5.00,000.00,018.7,017.5,000.0,027.1,020.0,12.2,0000.0,0002.74,0007.98,0002.18
2023-12-04 03:21:00,SystemResetWarning,0826.2,5.00,000.00,018.7,017.5,000.0,027.1,020.0,12.3,0000.0,0002.71,0007.76,0002.17
2023-12-04 03:22:00,SystemResetWarning,0826.2,5.00,000.00,018.7,017.6,000.0,027.1,020.0,12.4,0000.0,0002.68,0007.97,0002.15
2023-12-04 03:23:00,SystemResetWarning,0826.2,5.00,000.00,018.7,017.6,000.0,027.1,020.0,12.2,0000.0,0002.66,0008.04,0002.12
2023-12-04 03:24:00,SystemResetWarning,0826.2,5.01,000.00,018.7,017.6,000.0,027.1,020.0,12.3,0000.0,0002.73,0007.94,0002.12
2023-12-04 03:25:00,SystemResetWarning,0826.2,5.00,000.00,018.7,017.6,000.0,027.1,020.0,12.3,0000.0,0002.82,0007.59,0002.13
2023-12-04 03:26:00,SystemResetWarning,0826.2,5.00,000.00,018.7,017.6,000.0,027.1,020.0,12.1,0000.0,0002.80,0006.81,0002.13
2023-12-04 03:27:00,SystemResetWarning,0826.2,5.00,000.00,018.7,017.6,000.0,027.1,020.0,12.2,0000.0,0002.86,0006.76,0002.15
2023-12-04 03:28:00,SystemResetWarning,0826.2,5.00,000.00,018.7,017.6,000.0,027.1,020.0,12.2,0000.0,0002.85,0006.33,0002.18
2023-12-04 03:29:00,SystemResetWarning,0826.3,5.00,000.00,018.7,017.6,000.0,027.1,020.0,12.2,0000.0,0002.94,0006.32,0002.22
2023-12-04 03:30:00,SystemResetWarning,0826.2,5.00,000.00,018.7,017.6,000.0,027.1,020.0,12.2,0000.0,0002.99,0006.44,0002.24
2023-12-04 03:31:00,SystemResetWarning,0826.2,4.99,000.00,018.7,017.6,000.0,027.1,020.0,12.1,0000.0,0003.03,0006.68,0002.28
2023-12-04 03:32:00,SystemResetWarning,0826.1,5.00,000.00,018.7,017.7,000.0,027.1,020.0,12.1,0000.0,0003.08,0007.11,0002.32
2023-12-04 03:33:00,SystemResetWarning,0826.0,5.00,000.00,018.7,017.7,000.0,027.1,020.0,12.0,0000.0,0003.13,0006.97,0002.36
2023-12-04 03:34:00,SystemResetWarning,0826.0,5.00,000.00,018.7,017.7,000.0,027.1,020.0,11.9,0000.0,0003.16,0007.05,0002.41
2023-12-04 03:35:00,SystemResetWarning,0826.0,4.99,000.00,018.7,017.7,000.0,027.1,020.0,11.9,0000.0,0003.16,0006.86,0002.43
2023-12-04 03:36:00,SystemResetWarning,0826.0,5.00,000.00,018.7,017.7,000.0,027.1,020.0,12.0,0000.0,0003.12,0006.57,0002.44
2023-12-04 03:37:00,SystemResetWarning,0826.1,5.00,000.00,018.7,017.7,000.0,027.1,020.0,12.0,0000.0,0003.14,0006.73,0002.45
2023-12-04 03:38:00,SystemResetWarning,0826.1,5.00,000.00,018.7,017.7,000.0,027.1,020.0,12.0,0000.0,0003.14,0006.85,0002.46
2023-12-04 03:39:00,SystemResetWarning,0826.1,5.00,000.00,018.7,017.7,000.0,027.1,020.0,11.9,0000.0,0003.16,0007.17,0002.48
2023-12-04 03:40:00,SystemResetWarning,0826.0,5.00,000.00,018.7,017.7,000.0,027.1,020.0,11.9,0000.0,0003.11,0007.09,0002.46
2023-12-04 03:41:00,SystemResetWarning,0826.0,5.00,000.00,018.7,017.7,000.0,027.1,020.0,11.9,0000.0,0003.06,0006.92,0002.45
2023-12-04 03:42:00,SystemResetWarning,0826.0,5.00,000.00,018.7,017.7,000.0,027.1,020.0,11.9,0000.0,0003.01,0008.00,0002.44
2023-12-04 03:43:00,SystemResetWarning,0825.9,5.01,000.00,018.7,017.7,000.0,027.1,020.0,11.9,0000.0,0002.97,0007.77,0002.41
2023-12-04 03:44:00,SystemResetWarning,0825.9,5.00,000.00,018.7,017.7,000.0,027.1,020.0,11.9,0000.0,0002.96,0008.09,0002.40
2023-12-04 03:45:00,SystemResetWarning,0825.9,5.00,000.00,018.7,017.7,000.0,027.1,020.0,11.9,0000.0,0002.97,0008.18,0002.40
2023-12-04 03:46:00,SystemResetWarning,0826.0,5.00,000.00,018.7,017.7,000.0,027.1,020.0,11.9,0000.0,0002.98,0009.26,0002.40
2023-12-04 03:47:00,SystemResetWarning,0826.0,5.00,000.00,018.7,017.7,000.0,027.1,020.0,11.9,0000.0,0002.99,0009.90,0002.41
2023-12-04 03:48:00,SystemResetWarning,0826.0,5.00,000.00,018.7,017.7,000.0,027.1,020.0,11.9,0000.0,0002.93,0010.52,0002.39
2023-12-04 03:49:00,SystemResetWarning,0826.0,4.99,000.00,018.7,017.7,000.0,027.1,020.0,11.9,0000.0,0002.87,0011.22,0002.37
2023-12-04 03:50:00,SystemResetWarning,0826.1,5.00,000.00,018.7,017.7,000.0,027.1,020.0,12.0,0000.0,0002.80,0011.27,0002.34
2023-12-04 03:51:00,SystemResetWarning,0826.2,4.99,000.00,018.7,017.7,000.0,027.1,020.0,12.1,0000.0,0002.82,0011.38,0002.33
2023-12-04 03:52:00,SystemResetWarning,0826.2,5.00,000.00,018.7,017.7,000.0,027.1,020.0,12.1,0000.0,0002.80,0011.45,0002.29
2023-12-04 03:53:00,SystemResetWarning,0826.1,5.01,000.00,018.7,017.7,000.0,027.1,020.0,12.2,0000.0,0002.84,0010.61,0002.27
2023-12-04 03:54:00,SystemResetWarning,0826.1,5.00,000.00,018.7,017.7,000.0,027.1,020.0,12.2,0000.0,0002.86,0010.14,0002.25
2023-12-04 03:55:00,SystemResetWarning,0826.0,5.01,000.00,018.7,017.8,000.0,027.1,020.0,12.2,0000.0,0002.82,0009.90,0002.21
2023-12-04 03:56:00,SystemResetWarning,0825.9,5.00,000.00,018.7,017.8,000.0,027.1,020.0,12.2,0000.0,0002.80,0009.85,0002.19
2023-12-04 03:57:00,SystemResetWarning,0825.9,5.00,000.00,018.7,017.8,000.0,027.1,020.0,12.2,0000.0,0002.78,0009.47,0002.17
2023-12-04 03:58:00,SystemResetWarning,0825.9,4.99,000.00,018.7,017.8,000.0,027.1,020.0,12.1,0000.0,0002.72,0008.62,0002.15
2023-12-04 03:59:00,SystemResetWarning,0826.0,5.00,000.00,018.7,017.8,000.0,027.1,020.0,12.1,0000.0,0002.72,0007.95,0002.15
